Home   Weather   Köniz   Past weeks

Flag for Switzerland Past Weather in Köniz, Bern, Switzerland — Yesterday and Last 2 Weeks

Now
55 °F

Clear.


Feels Like: 54 °F
Forecast: 49 / 64 °F
Wind: 7 mph from East

Location: Bern / Belp

Current Time: Sep 30, 2016 at 10:20:38 PM

Latest Report: Sep 30, 2016 at 9:50 PM


Visibility: 10 mi

Pressure: 30.01 "Hg (28.01 "Hg at 579m altitude)

Humidity: 82%

Dew Point: 50 °F

Location of KönizLocation

Past Weather in Köniz — Graph

°F

Köniz Temperature Yesterday

Maximum temperature yesterday: 75 °F (at 2:50 PM)
Minimum temperature yesterday: 45 °F (at 6:50 AM)
Average temperature yesterday: 59 °F

High & Low Weather Summary for the Past Weeks

 TemperatureHumidityPressure
High75 °F (Sep 29, 2:50 PM)100% (Sep 16, 2:50 AM)30.48 "Hg (Sep 16, 2:50 AM)
Low43 °F (Sep 22, 2:20 AM)36% (Sep 29, 3:50 PM)29.95 "Hg (Sep 15, 8:20 PM)
Average57 °F85%30.15 "Hg
* Reported Sep 15 8:20 PM — Sep 30 8:50 PM, Köniz, Weather by CustomWeather, © 2016

Note: Actual official high and low records may vary slightly from our data, if they occured in-between our weather recording intervals... More about our weather records

Advertising

Köniz Weather History for the Previous 24 Hours

Scroll right to see more
 ConditionsComfort  
Time TempWeatherWind HumidityBarometerVisibility
8:50 PM
Fri, Sep 30
55 °FClear.8 mph82%30.01 "Hg10 mi
8:20 PM57 °FClear.2 mph77%30.01 "Hg10 mi
7:50 PM59 °FClear.2 mph77%30.01 "Hg10 mi
7:20 PM61 °FClear.1 mph72%29.98 "Hg10 mi
6:50 PM66 °FSunny.3 mph60%29.98 "Hg10 mi
6:20 PM70 °FSunny.3 mph53%30.01 "Hg10 mi
5:50 PM73 °FSunny.3 mph44%30.01 "Hg10 mi
5:20 PM73 °FSunny.5 mph41%30.01 "Hg10 mi
4:50 PM75 °FPassing clouds.6 mph36%30.01 "HgN/A
4:20 PM75 °FPassing clouds.7 mph39%30.01 "HgN/A
3:50 PM75 °FPassing clouds.9 mph36%30.01 "HgN/A
3:20 PM73 °FSunny.14 mph44%30.04 "Hg10 mi
2:50 PM73 °FPassing clouds.6 mph44%30.04 "HgN/A
2:20 PM72 °FSunny.8 mph50%30.04 "Hg10 mi
1:50 PM72 °FSunny.2 mph53%30.07 "Hg10 mi
1:20 PM70 °FSunny.2 mph53%30.07 "Hg10 mi
12:50 PM66 °FSunny.2 mph56%30.07 "Hg10 mi
12:20 PM66 °FSunny.2 mph56%30.09 "Hg10 mi
11:50 AM64 °FSunny.1 mph60%30.09 "Hg10 mi
11:20 AM63 °FPassing clouds.5 mph68%30.09 "HgN/A
10:50 AM61 °FSunny.5 mph72%30.12 "Hg10 mi
10:20 AM59 °FSunny.5 mph77%30.12 "Hg10 mi
9:50 AM55 °FSunny.5 mph82%30.12 "Hg10 mi
9:20 AM52 °FSunny.2 mph94%30.12 "Hg10 mi
8:50 AM48 °FSunny.2 mph94%30.12 "Hg10 mi
8:20 AM45 °FPassing clouds.2 mph100%30.12 "HgN/A
7:50 AM43 °FFog.2 mph100%30.12 "HgN/A
7:20 AM45 °FPassing clouds.3 mph100%30.12 "HgN/A
6:50 AM43 °FPassing clouds.2 mph100%30.12 "HgN/A
6:20 AM45 °FPassing clouds.3 mph100%30.12 "HgN/A
5:50 AM43 °FFog.2 mph100%30.12 "HgN/A
5:20 AM43 °FQuite cool.1 mph100%30.12 "Hg6 mi
4:50 AM43 °FQuite cool.1 mph100%30.12 "Hg6 mi
4:20 AM45 °FQuite cool.1 mph100%30.12 "Hg5 mi
3:50 AM45 °FQuite cool.1 mph100%30.12 "Hg5 mi
3:20 AM45 °FQuite cool.1 mph100%30.15 "Hg4 mi
2:50 AM46 °FClear.1 mph93%30.15 "Hg10 mi
2:20 AM48 °FClear.1 mph100%30.15 "Hg10 mi
1:50 AM46 °FClear.2 mph100%30.15 "Hg10 mi
1:20 AM48 °FClear.1 mph94%30.15 "Hg10 mi
12:50 AM50 °FClear.No wind94%30.15 "Hg10 mi
12:20 AM52 °FClear.2 mph94%30.15 "Hg10 mi
11:50 PM
Thu, Sep 29
50 °FClear.1 mph94%30.15 "Hg10 mi
11:20 PM52 °FClear.1 mph94%30.15 "Hg10 mi
10:50 PM55 °FClear.2 mph88%30.15 "Hg10 mi
10:20 PM55 °FClear.5 mph82%30.15 "Hg10 mi
Weather by CustomWeather, © 2016

See weather overviewHow to use our weather pages